FW5354 Weather Reports


Display with metric or nautical units.
time (UTC)temp
F
wind
direction
speed
MPH
gust
MPH
rain 1hr
in
rain 24hr
in
rain mn
in
humidity
%
barometer
mb
20260901051533 83 199 0.0 0.0 0.00 0.00 0.00 73 1012.8
20260901050032 83 198 0.0 0.0 0.00 0.00 0.00 73 1012.7
20260901044531 84 199 0.0 0.0 0.00 0.00 0.00 73 1012.5
20260901043029 84 199 0.0 0.0 0.00 0.00 0.00 73 1012.5
20260901041527 84 199 0.0 0.0 0.00 0.00 0.00 72 1012.5
20260901040027 84 199 0.0 0.0 0.00 0.00 0.00 72 1012.5
20260901034523 85 199 0.0 0.0 0.00 0.00 0.00 71 1012.3
20260901033036 85 199 0.0 0.0 0.00 0.00 0.00 71 1012.2
20260901031520 85 199 0.0 0.0 0.00 0.00 0.00 70 1012.0
20260901030022 85 199 0.0 0.0 0.00 0.00 0.00 70 1011.8
20260901024520 85 199 0.0 0.0 0.00 0.00 0.00 69 1011.8
20260901023015 86 198 0.0 0.0 0.00 0.00 0.00 68 1011.5
20260901021517 87 199 0.0 0.0 0.00 0.00 0.00 67 1011.2
20260901020012 87 199 0.0 0.0 0.00 0.00 0.00 67 1011.3
20260901014510 88 199 0.0 0.0 0.00 0.00 0.00 66 1011.1
20260901013008 88 198 0.0 0.0 0.00 0.00 0.00 66 1011.0
20260901011506 88 198 0.0 0.0 0.00 0.00 0.00 65 1011.0
20260901010004 89 198 0.0 0.0 0.00 0.00 0.00 64 1010.8
20260901004502 89 203 0.0 0.0 0.00 0.00 0.00 62 1010.9
20260901003102 90 203 0.0 0.0 0.00 0.00 0.00 60 1011.1
20260901001600 91 203 0.0 0.0 0.00 0.00 0.00 60 1011.0
20260901000100 91 207 0.0 0.0 0.00 0.00 0.00 58 1011.0
20260831234602 92 213 0.0 0.0 0.00 0.00 0.00 56 1011.1
20260831233056 93 216 0.0 0.0 0.00 0.00 0.00 52 1011.1
20260831231556 93 216 0.0 0.0 0.00 0.00 0.00 50 1011.0
20260831230055 93 151 0.0 0.0 0.00 0.00 0.00 50 1011.0
20260831224550 93 146 0.0 0.0 0.00 0.00 0.00 51 1011.0
20260831223050 93 144 0.0 0.0 0.00 0.00 0.00 52 1011.1
20260831221548 93 144 0.0 0.0 0.00 0.00 0.00 53 1011.1
20260831220056 92 150 0.0 0.0 0.00 0.00 0.00 58 1011.1
20260831214549 92 146 0.0 0.0 0.00 0.00 0.00 59 1011.3
20260831213045 93 143 0.0 0.0 0.00 0.00 0.00 59 1011.5
20260831211540 94 155 0.0 0.0 0.00 0.00 0.00 56 1011.6
20260831210040 95 161 0.0 0.0 0.00 0.00 0.00 57 1011.7
20260831204552 96 165 0.0 0.0 0.00 0.00 0.00 53 1011.7
20260831203054 97 193 0.0 0.0 0.00 0.00 0.00 49 1011.9
20260831201532 96 218 0.0 0.0 0.00 0.00 0.00 51 1012.1
20260831200037 96 220 0.0 0.0 0.00 0.00 0.00 48 1012.3
20260831194528 96 200 0.0 0.0 0.00 0.00 0.00 52 1012.5
20260831193028 96 210 0.0 0.0 0.00 0.00 0.00 51 1012.6
20260831191524 95 201 0.0 0.0 0.00 0.00 0.00 53 1012.9
20260831190024 0 0.0 0.0 0.00 0.00 0.00 1013.1
20260831184517 0 0.0 0.0 0.00 0.00 0.00 1013.3
20260831183013 0 0.0 0.0 0.00 0.00 0.00 1013.4
20260831181509 0 0.0 0.0 0.00 0.00 0.00 1013.6
20260831180006 0 0.0 0.0 0.00 0.00 0.00 1013.8
20260831174504 0 0.0 0.0 0.00 0.00 0.00 1013.9
20260831173106 0 0.0 0.0 0.00 0.00 0.00 1014.2
20260831171604 0 0.0 0.0 0.00 0.00 0.00 1014.2
20260831170055 0 0.0 0.0 0.00 0.00 0.00 1014.4
20260831164553 93 175 0.0 0.0 0.00 0.00 0.00 56 1014.4
20260831163050 0 0.0 0.0 0.00 0.00 0.00 1014.3
20260831161545 0 0.0 0.0 0.00 0.00 0.00 1014.5
20260831160105 0 0.0 0.0 0.00 0.00 0.00 1014.6
20260831154637 0 0.0 0.0 0.00 0.00 0.00 1014.5
20260831153106 0 0.0 0.0 0.00 0.00 0.00 1014.5
20260831151528 0 0.0 0.0 0.00 0.00 0.00 1014.5
20260831150031 0 0.0 0.0 0.00 0.00 0.00 1014.4
20260831144519 0 0.0 0.0 0.00 0.00 0.00 1014.3
20260831143016 0 0.0 0.0 0.00 0.00 0.00 1014.2
20260831141518 0 0.0 0.0 0.00 0.00 0.00 1014.2
20260831140013 84 152 0.0 0.0 0.00 0.00 0.00 68 1014.1
20260831134512 83 153 0.0 0.0 0.00 0.00 0.00 62 1013.9
20260831133010 81 152 0.0 0.0 0.00 0.00 0.00 51 1013.9
20260831131511 79 152 0.0 0.0 0.00 0.00 0.00 40 1013.8
20260831130008 78 148 0.0 0.0 0.00 0.00 0.00 37 1013.7
20260831124505 0 0.0 0.0 0.00 0.00 0.00 1013.5
20260831123000 0 0.0 0.0 0.00 0.00 0.00 1013.3
20260831121557 0 0.0 0.0 0.00 0.00 0.00 1013.2
20260831120142 0 0.0 0.0 0.00 0.00 0.00 1012.8
20260831114549 0 0.0 0.0 0.00 0.00 0.00 1012.7
20260831113046 0 0.0 0.0 0.00 0.00 0.00 1012.7
20260831111548 0 0.0 0.0 0.00 0.00 0.00 1012.8
20260831110038 0 0.0 0.0 0.00 0.00 0.00 1012.7
20260831104539 0 0.0 0.0 0.00 0.00 0.00 1012.7
20260831103035 0 0.0 0.0 0.00 0.00 0.00 1012.7
20260831101533 0 0.0 0.0 0.00 0.00 0.00 1012.8
20260831100027 0 0.0 0.0 0.00 0.00 0.00 1013.0
20260831094519 0 0.0 0.0 0.00 0.00 0.00 1012.7
20260831093017 0 0.0 0.0 0.00 0.00 0.00 1012.7
20260831091512 0 0.0 0.0 0.00 0.00 0.00 1012.6
20260831090008 0 0.0 0.0 0.00 0.00 0.00 1012.7
20260831084504 0 0.0 0.0 0.00 0.00 0.00 1012.8
20260831083100 0 0.0 0.0 0.00 0.00 0.00 1012.8
20260831081559 0 0.0 0.0 0.00 0.00 0.00 1012.7
20260831080051 0 0.0 0.0 0.00 0.00 0.00 1012.8
20260831074548 0 0.0 0.0 0.00 0.00 0.00 1012.8
20260831073045 0 0.0 0.0 0.00 0.00 0.00 1012.8
20260831071541 0 0.0 0.0 0.00 0.00 0.00 1012.9
20260831070058 0 0.0 0.0 0.00 0.00 0.00 1013.0
20260831064532 0 0.0 0.0 0.00 0.00 0.00 1013.1
20260831063028 0 0.0 0.0 0.00 0.00 0.00 1013.0
20260831061527 81 148 0.0 0.0 0.00 0.00 0.00 71 1013.0
20260831060025 82 148 0.0 0.0 0.00 0.00 0.00 71 1013.1
20260831054523 82 148 0.0 0.0 0.00 0.00 0.00 72 1013.2
20260831053024 82 148 0.0 0.0 0.00 0.00 0.00 72 1013.0